TUBIN
1 48900U 21059X   25235.28186714  .00051575  00000-0  48321-3 0  9996
2 48900  97.6770  50.9552 0002297 306.9113  53.1936 15.67073943231714
LEDSAT
1 49069U 21073D   25233.80065967  .00107698  00000-0  80159-3 0  9994
2 49069  97.3830 318.9395 0008229 173.9806 186.1558 15.72432203222899
CUTE
1 49263U 21088D   25235.25454067  .00014038  00000-0  25121-3 0  9993
2 49263  97.4481 313.8278 0005229 332.2503  27.8469 15.50089352215986
TeikyoSat 4
1 49396U 21102B   25235.07883429  .00001205  00000-0  82398-4 0  9997
2 49396  97.4058 270.8113 0011080 233.4183 126.6027 15.07910883207771
Z-Sat
1 49399U 21102E   25235.20358155  .00003444  00000-0  18757-3 0  9992
2 49399  97.3753 274.5004 0017372 199.8372 160.2187 15.14946593208272
KOSEN 1
1 49402U 21102H   25235.15730025  .00005391  00000-0  24430-3 0  9999
2 49402  97.3652 278.4480 0015997 171.8482 188.3017 15.21152303208627
HO-113
1 50466U 21131B   25235.34325778  .00000391  00000-0  13589-3 0  9997
2 50466  98.5092 324.3298 0002990 270.5104  89.5742 14.40887641192219
SNUGLITE 2
1 52899U 22065F   25235.29787353  .00000928  00000-0  18889-3 0  9995
2 52899  98.1789  16.5906 0006603 233.2621 126.7975 14.63364058167414
UmKA 1 (RS40S)
1 57172U 23091G   25234.15103264  .00004794  00000-0  25186-3 0  9994
2 57172  97.5528 289.1604 0015704  82.2184 278.0831 15.16076868118627
CubeBel-2 (EU11S)
1 57175U 23091K   25234.17554034  .00008662  00000-0  39847-3 0  9991
2 57175  97.5526 290.8020 0013335  88.3849 271.8914 15.20505639118735
ENSO
1 58470U 23185J   25235.24671238  .00079175  00000-0  81044-3 0  9992
2 58470  97.3670 313.1793 0006952 168.6479 191.4939 15.64720651 96679
EIRSAT-1
1 58472U 23185L   25234.60750755  .00435647  78378-4  11064-2 0  9996
2 58472  97.3563 316.3869 0007927 228.9428 131.1163 15.95398471 96831
SONATE-2
1 59112U 24043Q   25234.33232290  .00015434  00000-0  41481-3 0  9999
2 59112  97.5218   7.1388 0010301 205.9094 154.1636 15.37949182 81669
MO-122
1 60209U 24125G   25234.52123240  .00015075  00000-0  39730-3 0  9999
2 60209  97.2715  85.4026 0016548 227.1338 132.8518 15.38464973 63316
GRBBeta
1 60237U 24128C   25234.85421283  .00003913  00000-0  29379-3 0  9993
2 60237  61.9908 180.4785 0056269  73.4457 287.2805 15.03177331 61363
Curium One
1 60242U 24128H   25234.29434948  .00007048  00000-0  47791-3 0  9990
2 60242  61.9804 179.5715 0056314  69.8893 290.8247 15.06046290 61339
ROBUSTA-3A
1 60243U 24128J   25234.85207945  .00006888  00000-0  47446-3 0  9996
2 60243  61.9879 178.7008 0055498  67.5977 293.0982 15.05525961 61403
CatSat
1 60246U 24125J   25234.02035717  .00014890  00000-0  47014-3 0  9994
2 60246  97.2526  83.2541 0040801 189.9977 170.0459 15.32101127 61227
HYPERVIEW-1G (RS66S)
1 61772U 24199AP  25234.90419767  .00018271  00000-0  48533-3 0  9992
2 61772  97.3420 103.7058 0010578 287.7015  72.3075 15.38266820 88376
AO-123
1 61781U 24199AY  25234.86999828  .00005250  00000-0  18727-3 0  9993
2 61781  97.3440 101.6770 0013783 297.4993  62.4846 15.29237985 88231
ZIMSAT 2
1 61783U 24199BA  25234.91310653  .00035931  00000-0  73718-3 0  9994
2 61783  97.3383 105.0078 0009186 279.0992  80.9218 15.45911853 91610
HADES-R (SO-124)
1 62690U 25009CK  25234.18425672  .00036692  00000-0  11120-2 0  9993
2 62690  97.4062 314.9294 0003784 182.1596 177.9631 15.34045068 33410
HYDRA-T
1 62692U 25009CM  25233.69801587  .00035845  00000-0  10741-2 0  9990
2 62692  97.4076 314.5107 0003803 177.8281 182.2979 15.34407661 33347
JINJUSat 1B
1 63210U 25052A   25234.45978988  .00009584  00000-0  42138-3 0  9997
2 63210  97.4316 127.6799 0006183  74.3637 285.8281 15.22081175 24487
NUSHSAT 1
1 63211U 25052B   25234.96576785  .00010108  00000-0  43899-3 0  9992
2 63211  97.4302 128.2049 0006325  76.6674 283.5267 15.22486063 24565
TEVEL2-4
1 63213U 25052D   25234.92968790  .00009751  00000-0  42831-3 0  9998
2 63213  97.4217 127.9275 0005534  88.9881 271.1989 15.22114061 24555
TEVEL2-5
1 63214U 25052E   25233.68239509  .00009217  00000-0  40569-3 0  9993
2 63214  97.4223 126.6932 0005588  92.0483 268.1393 15.22058167 24360
TEVEL2-6
1 63215U 25052F   25234.27814827  .00009628  00000-0  42396-3 0  9998
2 63215  97.4222 127.2742 0005656  91.3258 268.8626 15.22030660 24458
TEVEL2-1
1 63217U 25052H   25234.95777179  .00008990  00000-0  39876-3 0  9993
2 63217  97.4194 127.8412 0005822  97.9991 262.1906 15.21801303 24557
TEVEL2-3
1 63218U 25052J   25234.95794391  .00009085  00000-0  40287-3 0  9993
2 63218  97.4201 127.8431 0005910  98.7271 261.4635 15.21806788 24559
TEVEL2-2
1 63219U 25052K   25234.95842423  .00009057  00000-0  40176-3 0  9990
2 63219  97.4197 127.8416 0005839  98.4226 261.7673 15.21796468 24552
TEVEL2-9
1 63237U 25052AD  25234.95247026  .00008380  00000-0  38568-3 0  9998
2 63237  97.4259 127.6794 0009997 110.6845 249.5463 15.20523610 24536
TEVEL2-7
1 63238U 25052AE  25234.43166990  .00008775  00000-0  40473-3 0  9998
2 63238  97.4261 127.1568 0010072 112.1594 248.0711 15.20435950 24458
TEVEL2-8
1 63239U 25052AF  25234.96171442  .00008590  00000-0  39653-3 0  9998
2 63239  97.4262 127.6690 0010119 110.9871 249.2448 15.20413717 24533
HYDRA-W
1 63490U 25052BL  25234.50034759  .00023673  00000-0  89835-3 0  9992
2 63490  97.4206 128.0188 0013905 109.2392 251.0352 15.26755245 24527
HADES-ICM (SO-125)
1 63492U 25052BN  25234.47538572  .00023892  00000-0  92466-3 0  9999
2 63492  97.4211 127.9123 0013925 112.6772 247.5940 15.26100850 24512
